Location: Asheville, NC
(35.6000°N, 82.5500°W)
Time: 01:27:50
(UTC-05:00)

Vanguard 2 Rocket - Pass Details

Date: 10 February 2018
Orbit: 555 x 3327 km, 32.9° (Epoch: 23 February)

Event Time Altitude Azimuth Distance (km) Brightness Sun altitude
Exits shadow 05:34:38 28° 271° (W) 4,875 9.9 -22.3°
Maximum altitude 05:48:00 78° 191° (S) 2,964 9.3 -19.6°
Drops below altitude 10° 06:02:14 10° 108° (ESE) 4,598 11.7 -16.7°
Sets 06:05:09 0° 107° (ESE) 5,294 12.5 -16.1°
